If you wish to contribute or participate in the discussions about articles you are invited to join SKYbrary as a registered user

 Actions

Alamogordo-White Sands Regional Airport

From SKYbrary Wiki

KALM
Airport
ICAO: KALM
Summary
Name Alamogordo-White Sands Regional Airport
Region North America
Territory United States US.gif
Location Alamogordo, New Mexico
Serving
Coordinates 32° 50' 23.74" N, 105° 59' 26.10" W
Runways
Designator Length Width Surface ROPS
3/21 2135 m7,004.593 ft
46 m150.919 ft
ASP /
16/34 1070 m3,510.499 ft
61 m200.131 ft
GRE /


METAR
Observation KALM 181835Z AUTO 31009KT 10SM SCT100 11/06 A3002 RMK AO2
Station Alamogordo-White
Date/Time 18 December 2018 18:35:00
Wind direction 310°
Wind speed 09 kts
Lowest cloud amount scattered clouds
Temperature 11°C
Dew point 6°C
Humidity 71%
QNH hPa
Weather condition n/a

RE
Tag(s) Hot and High Operations

Alamogordo-White Sands Regional Airport

ICAO: KALM IATA: ALM

Description

Alamogordo–White Sands Regional Airport is a public use airport located 7 km3.78 nm
7,000 m
22,965.879 ft
southwest of the central business district of Alamogordo, a city in Otero County, New Mexico.

Climatology

A semi-arid steppe climate (Köppen climate classification BSk), with generally cold, dry winters and hot summers. Late spring and early summer is on average the wettest period of the year.

Maps

Terrain

Loading map...

Airport Layout

Loading map...


Accidents & Serious Incidents at or in vicinity of KALM

None on SKYbrary